Location: Fontevrault
(47.1823°N, 0.0493°E)
Time: 11:37:26
(UTC+00:00)

KORONAS-FOTON - Pass Details

Date: 16 June 2021
Orbit: 505 x 530 km, 82.4° (Epoch: 27 July)

Event Time Altitude Azimuth Distance (km) Brightness Sun altitude
Exits shadow 21:36:23 - 195° (SSW) 1,838 6.2 -12.3°
Reaches altitude 10° 21:36:39 10° 195° (SSW) 1,734 6.1 -12.3°
Maximum altitude 21:40:26 71° 280° (W) 547 4.0 -12.7°
Drops below altitude 10° 21:44:14 10° 5° (N) 1,738 7.3 -13.0°
Sets 21:46:22 0° 8° (N) 2,626 8.2 -13.2°
